Regional Weather Roundup
Issued by NWS

Home | Current Version | Previous Version | Graphics & Text | Print | Product List | Glossary On
Versions: 1 2 3 4 5 6 7 8 9 10 11 12 13 14 15 16 17 18 19 20 21 22 23 24 25 26 27 28 29 30 31 32 33 34 35 36 37 38 39 40 41 42 43 44 45 46 47 48 49 50
000
ASUS43 KLOT 282100
RWRIL

ILLINOIS REGIONAL WEATHER ROUNDUP
NATIONAL WEATHER SERVICE CHICAGO/ROMEOVILLE IL
400 PM CDT MON JUL 28 2014

NOTE: "FAIR" INDICATES FEW OR NO CLOUDS BELOW 12,000 FEET WITH NO
SIGNIFICANT WEATHER AND/OR OBSTRUCTIONS TO VISIBILITY.

* THESE STATIONS ARE NOT UNDER NWS QUALITY CONTROL. THEY ALSO MAY NOT
  REPORT WEATHER SUCH AS PRECIPITATION OR FOG.

ILZ001-002-007-009-015-016-024-282200-
NORTHWEST ILLINOIS

CITY           SKY/WX    TMP DP  RH WIND       PRES   REMARKS
MOLINE         PTSUNNY   73  50  44 N9        30.14S
STERLING*      CLOUDY    72  50  46 NE9       30.14R
$$

ILZ003-004-008-010-011-017-018-282200-
NORTH CENTRAL ILLINOIS

CITY           SKY/WX    TMP DP  RH WIND       PRES   REMARKS
ROCKFORD       PTSUNNY   72  48  42 N12       30.12F
$$

ILZ005-006-012>014-019>023-282200-
NORTHEAST ILLINOIS

CITY           SKY/WX    TMP DP  RH WIND       PRES   REMARKS
CHICAGO-OHARE  PTSUNNY   72  46  39 N13       30.08S
CHICAGO-MIDWAY MOSUNNY   73  47  39 N15       30.08S
AURORA         CLOUDY    70  48  45 N15       30.10S
WAUKEGAN       SUNNY     65  50  58 NE8       30.09R
DUPAGE AIRPORT CLOUDY    70  48  45 N10       30.09S
WHEELING       SUNNY     69  51  52 NE9       30.10S
NORTHERLY ISL    N/A     64  49  57 N15         N/A
$$

LMZ740>746-282200-
SOUTHERN LAKE MICHIGAN

STATION/POSITION SKY/WX   TEMP    WIND        PRES    VSBY  WAVE
                          AIR SEA DIR/SP/G                  HT/PER
                          (F)     (DEG/KT/KT) (MB)    (MI)  (FT/S)
SOUTHERN BUOY              57 60  330/ 19/ 23 1018.2R         6/ 6
WAUKEGAN HARBOR            60      30/ 15/ 17   N/A
HARRISON CRIB              61     360/ 20/ 23   N/A
BURNHAM HARBOR             64      20/  9/ 20   N/A
CALUMET HARBOR             64     350/ 12/ 16 1018.1R
MICHIGAN CITY              59     320/ 20/ 25   N/A
MICHIGAN CITY 6N           61 67  340/ 17/ 25   N/A           8/ 8
ST. JOSEPH                 59 66  350/ 17/ 25   N/A           9/ 7
$$

ILZ025>027-034>036-040-047-049-050-058-095>099-282200-
WEST-CENTRAL ILLINOIS

CITY           SKY/WX    TMP DP  RH WIND       PRES   REMARKS
QUINCY         MOSUNNY   73  54  51 N14       30.14F
$$

ILZ028>032-037-038-041>044-048-051>054-059>061-282200-
CENTRAL ILLINOIS

CITY           SKY/WX    TMP DP  RH WIND       PRES   REMARKS
DECATUR        PTSUNNY   74  54  49 NW13      30.10S
PEORIA         MOSUNNY   73  50  44 VRB3G17   30.12S
SPRINGFIELD    PTSUNNY   72  54  53 N10       30.12S
TAYLORVILLE    NOT AVBL
$$

ILZ033-039-045-046-055>057-062-063-282200-
EAST-CENTRAL ILLINOIS

CITY           SKY/WX    TMP DP  RH WIND       PRES   REMARKS
CHAMPAIGN      PTSUNNY   71  53  52 NW13      30.09R
MATTOON        MOSUNNY   72  53  51 NW17      30.07S
$$

ILZ079-100>102-282200-
SOUTHWEST ILLINOIS

CITY           SKY/WX    TMP DP  RH WIND       PRES   REMARKS
BELLEVILLE     PTSUNNY   76  60  56 NW15      30.08S
CAHOKIA*       PTSUNNY   78  58  49 N17       30.09S
SPARTA*        PTSUNNY   77  61  57 NW13      30.08F
$$

ILZ064>066-069>071-074>076-080>082-084>086-088>090-092>094-282200-
SOUTH-CENTRAL ILLINOIS

CITY           SKY/WX    TMP DP  RH WIND       PRES   REMARKS
CARBONDALE     PTSUNNY   80  59  48 NW14      30.06S HX  81
MT. VERNON     MOSUNNY   75  57  53 N6        30.08R
$$

ILZ067-068-072-073-078-083-087-091-282200-
SOUTHEAST ILLINOIS

CITY           SKY/WX    TMP DP  RH WIND       PRES   REMARKS
LAWRENCEVILLE  MOSUNNY   76  57  51 NW16G23   30.05S
$$

ABBREVIATIONS USED IN REMARKS
   TC - TEMPERATURE IN CELSIUS
  WCI - WIND CHILL INDEX
   HX - HEAT INDEX
  VSB - VISIBILITY
$$



USA.gov is the U.S. government's official web portal to all federal, state and local government web resources and services.